Weather in Dobrush

Belarus     52°25′16″N   31°18′59″E
temp.,
°C
wind,
m/s
gust,
m/s
humid.,
%
clouds,
%
prec.,
mm/h
press.,
hPa
HPBL,
m
14 may, fri
fri1400:00+10se51186100 0.1 1010294
03:00+9se51386100 0.1 1011322
06:00+10se61386100 0.2 1010377
09:00+13ese6117789 0.6 1010439
12:00+19se696017 0.0 10091279
15:00+20sse685832 0.4 10071778
18:00+18sse467799 1.5 1006411
21:00+14s348982 3.2 100648
15 may, sat
sat1500:00+12sse339215 0.0 100635
03:00+11sse349449 0.0 100656
06:00+10sse37965 0.1 1007148
09:00+13s5691100 0.1 1007505
12:00+14ssw578794 0.1 1008655
15:00+17sw688093 1.1 10091126
18:00+18sw58745 0.4 10081127
21:00+13ssw34905 0.6 101064
16 may, sun
sun1600:00+11ssw48977 0.0 1010152
03:00+10ssw379711 0.0 1011154
06:00+11sw379833 0.0 1012170
09:00+15sw358173 0.0 1013342
12:00+20ssw45565 0.0 10131575
15:00+21sw355222 0.0 10121837
18:00+19se3669100 0.1 1012255
21:00+15sse4783100 0.1 1012113
17 may, mon
mon1700:00+14se3586100 0.0 101171
03:00+13ese4889100 0.0 1011135
06:00+13ese41188100 0.0 1010228
09:00+18ese51073100 0.0 1010409
12:00+20e3369100 0.0 1008509
15:00+20nne1273100 0.8 1007435
18:00+16nw71093100 2.5 1005454
21:00+14nnw71294100 5.1 1005474
18 may, tue
tue1800:00+12w3698100 0.0 1006156
03:00+13wnw2698100 0.0 1006211
06:00+12w3598100 0.0 1005208
09:00+16w458453 0.0 1006621
12:00+19ssw567263 0.8 10061099
15:00+20wsw5760100 1.4 10061737
18:00+18sw4569100 0.1 1007839
21:00+14wnw228640 0.3 100728